Regional Weather Roundup
Issued by NWS Grand Forks, ND

Home | Current Version | Previous Version | Graphics & Text | Print | Product List | Glossary On
Versions: 1 2 3 4 5 6 7 8 9 10 11 12 13 14 15 16 17 18 19 20 21 22 23 24 25 26 27 28 29 30 31 32 33 34 35 36 37 38 39 40 41 42 43 44 45 46 47 48 49 50
000
ASUS43 KFGF 261410
RWRFGF
PRAIRIE TO PINES  WEATHER ROUNDUP
NATIONAL WEATHER SERVICE EASTERN NORTH DAKOTA/GRAND FORKS ND
900 AM CDT TUE JUL 26 2016

 **SATELLITE DATA USED TO AUGMENT SKY COVER AT AUTOMATED STATIONS**
 *****  WEATHER ACROSS EASTERN NORTH DAKOTA  *****

CITY           SKY/WX    TMP DP  RH WIND       PRES   REMARKS
GRAND FORKS    PTSUNNY   75  65  70 CALM      29.96R
GRAND FRKS AFB PTSUNNY   74  65  73 NE1       29.98R
GRAND FRKS NWS   N/A     73 N/A N/A SE1         N/A
DEVILS LAKE    SUNNY     74  67  78 N3        30.01S
FARGO          LGT RAIN  71  66  84 S9        29.94S
WAHPETON ARPT  CLOUDY    70  63  78 SE5       29.98S
$$

 ***** WEATHER ACROSS CENTRAL AND WESTERN NORTH DAKOTA  *****

CITY           SKY/WX    TMP DP  RH WIND       PRES   REMARKS
BISMARCK       MOSUNNY   73  67  81 NE10      29.97S
MINOT          SUNNY     73  64  73 W5        30.04R
JAMESTOWN      CLOUDY    71  67  87 CALM      29.99R
MINOT AFB      SUNNY     68  63  83 N7        30.04R
GARRISON         N/A     73  69  87 E7        30.02R
WILLISTON      CLOUDY    67  60  78 NE7       30.07S
DICKINSON      CLOUDY    66  63  90 NW8       30.09R
HETTINGER      CLOUDY    69  63  81 NW26G36   30.08R
$$

 *****  OTHER AIRPORT OBSERVATIONS IN OUR AREA  *****

CITY           SKY/WX    TMP DP  RH WIND       PRES   REMARKS
WALHALLA       NOT AVBL
GRAFTON AIRPOR FAIR      73  68  83 CALM      29.99R
VALLEY CITY AR FAIR      68  68 100 NE3       29.98F
CANDO          NOT AVBL
CAVALIER APRT  FAIR      70  66  88 N7        29.98R
GWINNER        FAIR      70  64  83 S14       29.97F
ROLLA          FAIR      68  64  88 N8        30.04S
 ***** THE ABOVE OBSERVATIONS ARE NON NWS ARE NOT QUALITY
       CONTROLLED AND MAY MIS-REPORT RAIN FOR SNOW...
$$

  *****  WEATHER ACROSS NORTHERN MINNESOTA  *****

CITY           SKY/WX    TMP DP  RH WIND       PRES   REMARKS
FLAG ISLAND    SUNNY     73  61  64 NE7       29.98R
WARROAD        SUNNY     73  68  83 CALM      29.99R
ROSEAU         SUNNY     72  66  83 CALM      29.98S
HALLOCK        SUNNY     72  66  83 NE3       29.97R
THF RVR FALLS  CLOUDY    73  67  81 SE6       29.99R
BAUDETTE       SUNNY     73  64  73 SE6       29.98R
WASKISH        MOSUNNY   73  68  83 E6        29.98S
CROOKSTON      CLOUDY    73  66  78 CALM      29.97S
STEPHEN NDAWN    N/A     73  68  83 SW1         N/A
GREENBUSH NDAW   N/A     73  66  78 NE3         N/A
$$
  *****  WEATHER ACROSS CENTRAL AND WEST MINNESOTA  *****

CITY           SKY/WX    TMP DP  RH WIND       PRES   REMARKS
FOSSTON        CLOUDY    72  63  73 CALM      29.98S
BEMIDJI        CLOUDY    73  64  73 W6        29.99S
PARK RAPIDS    LGT RAIN  70  64  81 W3        30.00R
ELBOW LAKE     FAIR      71  65  82 S8        30.01S
WADENA         CLOUDY    70  64  83 SW5       29.99S
DETROIT LAKES  LGT RAIN  68  63  83 CALM      29.99F
MOORHEAD       CLOUDY    70  64  83 S10       29.95F
FERGUS FALLS   CLOUDY    73  64  73 SW6       30.00R
MORRIS MN      CLOUDY    72  66  83 S6        30.01R
STAPLES        CLOUDY    72  63  73 CALM      30.00S
$$
  *****  WEATHER ELSEWHERE ACROSS MINNESOTA  *****

CITY           SKY/WX    TMP DP  RH WIND       PRES   REMARKS
DULUTH         MOSUNNY   76  66  71 W10       29.99F
INTRNTL FALLS  SUNNY     74  65  73 VRB5      29.98S
ELY            MOSUNNY   70  64  83 S3        29.98F
CLOQUET        CLOUDY    75  63  64 SW7       29.99S
WHEATON        MOSUNNY   77  68  73 S5        30.00S
BRAINERD       CLOUDY    71  64  78 W5        30.00R
HIBBING        CLOUDY    72  65  78 SW6       29.99S
ALEXANDRIA     CLOUDY    73  64  73 SW12      30.03S
SAINT CLOUD    MOSUNNY   74  69  85 SW7       30.03S
MINNEAPOLIS    MOSUNNY   78  65  63 SW9       30.05S
$$

  *****  WEATHER ACROSS SOUTH DAKOTA  *****

CITY           SKY/WX    TMP DP  RH WIND       PRES   REMARKS
SIOUX FALLS    MOSUNNY   76  65  68 SW13      30.06F
BROOKINGS      SUNNY     73  65  75 SW9       30.06R
WATERTOWN      SUNNY     76  63  64 SW10      30.05S
HURON          SUNNY     73  63  70 S9        30.02R
SISSETON         N/A     76  63  64 W15       29.96F
ABERDEEN       TSTM      69  63  81 SE13      30.02S
MITCHELL       SUNNY     74  64  71 S9        30.03S
PIERRE         SUNNY     79  65  62 S8        29.97S
MOBRIDGE       SUNNY     79  65  62 S9        29.94S
RAPID CITY     CLOUDY    66  59  78 N18       30.06R THUNDER
$$

  *****  SOME WEATHER IN NEARBY STATES *****

CITY           SKY/WX    TMP DP  RH WIND       PRES   REMARKS
GLASGOW MT     CLOUDY    68  60  75 E15       30.05R
GREAT FALLS MT SUNNY     65  50  58 SW6       30.10R
CHEYENNE WY    CLOUDY    73  40  30 W8        30.20R
SCOTTSBLUFF NE CLOUDY    69  60  73 SE9       30.06F
OMAHA NE       MOSUNNY   75  66  73 S6        30.09R
DES MOINES IA  MOSUNNY   78  66  66 CALM      30.09S
DAVENPORT IA   SUNNY     76  67  73 E8        30.08S
CHICAGO IL     MOSUNNY   79  64  60 CALM      30.06S
EAU CLAIRE WI  SUNNY     76  66  71 SW6       30.05F
LA CROSSE WI   SUNNY     74  68  81 VRB5      30.08S
$$

  *****  SOME NATIONAL WEATHER *****

CITY           SKY/WX    TMP DP  RH WIND       PRES   REMARKS
LA GUARDIA NY  MOSUNNY   83  68  60 N7        29.90F
RALEIGH NC     PTSUNNY   85  73  67 W8        30.02S HX  91
ATLANTA GA     SUNNY     85  74  69 CALM      30.09S HX  92
NEW ORLEANS LA PTSUNNY   85  75  72 NE5       29.93S HX  93
OKLAHOMA CITY  PTSUNNY   76  73  91 SE8       30.03R
ALBUQUERQUE NM PTSUNNY   71  59  65 N6        30.28S
SALT LAKE CITY MOSUNNY   82  41  23 N5        30.06R
LOS ANGELES CA PTSUNNY   66  64  94 W6        29.89F FOG
BOISE ID       SUNNY     72  35  25 S7        29.99R
SEATTLE WA     CLOUDY    59  57  93 W5        30.16R
$$

*** WEATHER ACROSS MANITOBA...SASKATCHEWAN AND ONTARIO ***
                ***ONTARIO***

CITY           SKY/WX    TMP DP  RH WIND       PRES   REMARKS
GERALDTON      MOSUNNY   72  59  64 NW10      29.90F
THUNDER BAY    MOSUNNY   73  63  68 SW5       29.94S
SIOUX LOOKOUT  MOSUNNY   70  61  73 NW7       29.97S
TORONTO        MOSUNNY   75  61  60 NW6       30.00S
BIG TROUT LK   NOT AVBL
PICKLE LAKE    MOSUNNY   70  55  60 W9        29.90S
DRYDEN         SUNNY     72  55  56 NW6       29.99R
KENORA         PTSUNNY   72  55  56 NE6       30.00R
$$
                *** MANITOBA***

CITY           SKY/WX    TMP DP  RH WIND       PRES   REMARKS
BRANDON        PTSUNNY   68  59  73 NE9       30.03S
DAUPHIN        SUNNY     66  55  68 VRB3      30.05S
ISLAND LAKE    CLOUDY    59  52  77 NW20G28   29.94R
PILOT MOUND      N/A     68  64  88 N5          N/A
THE PAS        MOSUNNY   63  48  59 N8        30.10R
THOMPSON       CLOUDY    55  48  76 NW12      30.02R
WINNIPEG       PTSUNNY   72  61  68 NE3       29.99S
LYNN LAKE      SUNNY     55  45  67 MISG      30.11R
CHURCHILL      CLOUDY    48  46  93 N13       29.99R
GILLAM         DRIZZLE   54  52  94 N20       29.94R
$$
                ***SASKATCHEWAN***

CITY           SKY/WX    TMP DP  RH WIND       PRES   REMARKS
ESTEVAN        MOSUNNY   68  59  73 NE12      30.06F
KINDERSLEY     CLOUDY    63  55  77 S2        30.10S
LLOYDMINSTER   MOSUNNY   63  54  72 S5        30.10S
PRINCE ALBERT  MOSUNNY   61  52  72 E7        30.13R
REGINA         MOSUNNY   68  55  64 SE5       30.09S
YORKTON        SUNNY     61  57  88 N6        30.09R
N. BATTLEFORD  SUNNY     63  54  72 SE8       30.13S
LA RONGE       SUNNY     63  54  72 SE5       30.14R
SASKATOON      PTSUNNY   63  55  77 NE3       30.12S
SWIFT CURRENT  CLOUDY    61  57  88 SE6       30.11R
$$
NOTE: THESE ARE AUTOMATED STATIONS WITH LIMITED QUALITY CONTROL
      "FAIR" INDICATES FEW OR NO CLOUDS BELOW 12,000 FEET WITH NO
      SIGNIFICANT WEATHER AND/OR OBSTRUCTIONS TO VISIBILITY.
      SKY/WX - SKY CONDITION AND SIGNIFICANT WEATHER.
      TMP - AIR TEMPERATURE.    DP   - DEWPOINT TEMPERATURE.
      RH  - RELATIVE HUMIDITY.  PRES - PRESSURE.
      HX  - HEAT INDEX.         WCI  - WIND CHILL INDEX.
$



USA.gov is the U.S. government's official web portal to all federal, state and local government web resources and services.